Location: Kuffner-Sternwarte
(48.2130°N, 16.2960°E)
Time: 03:30:01
(UTC+02:00)

COROT - Pass Details

Date: 25 March 2017
Orbit: 600 x 890 km, 90.0° (Epoch: 20 September)

Event Time Altitude Azimuth Distance (km) Brightness Sun altitude
Rises 01:00:40 0° 357° (N) 3,072 9.9 -38.3°
Reaches altitude 10° 01:02:53 10° 353° (N) 2,192 9.0 -38.2°
Enters shadow 01:03:56 17° 350° (N) 1,797 8.4 -38.1°
